Regional Weather Roundup
Issued by NWS

Home | Current Version | Previous Version | Text Only | Print | Product List | Glossary Off
Versions: 1 2 3 4 5 6 7 8 9 10 11 12 13 14 15 16 17 18 19 20 21 22 23 24 25 26 27 28 29 30 31 32 33 34 35 36 37 38 39 40 41 42 43 44 45 46 47 48 49 50

820
ASUS45 KBOU 252207
RWRCO

WEATHER ROUNDUP FOR COLORADO
NATIONAL WEATHER SERVICE DENVER/BOULDER CO
400 PM MDT SUN JUN 25 2017

NOTE: "FAIR" INDICATES FEW OR NO CLOUDS BELOW 12000 FEET WITH NO
SIGNIFICANT WEATHER AND/OR OBSTRUCTIONS TO VISIBILITY.

COZ001>005-013-030-031-252300-
...NORTHWEST COLORADO...

CITY           SKY/WX    TMP DP  RH WIND       PRES   REMARKS
CRAIG          FAIR      84  22  10 VRB5      30.29F
HAYDEN         FAIR      81  28  15 NW10G21   30.31F
MEEKER         FAIR      84  24  11 CALM      30.28F
RABBIT EARS PA FAIR      61  32  33 NW5       30.60S
STEAMBOAT SPGS FAIR      78  31  17 SW5       30.32F
WALDEN         FAIR      75  34  22 NW13      30.42F
$$

COZ006>008-011-252300-
...WEST CENTRAL VALLEYS...

CITY           SKY/WX    TMP DP  RH WIND       PRES   REMARKS
GRAND JUNCTION FAIR      94  24   8 W15G21    30.11F
MONTROSE       FAIR      90  28  11 N8        30.19F
EAGLE          MOSUNNY   82  28  14 W9        30.27F
RIFLE          FAIR      92  22   8 NW14      30.18F
DELTA          FAIR      98  23   7 W14G21    30.13F
NUCLA          FAIR      93   9   4 W7G23     30.22F
$$

COZ017>023-064>068-252300-
...SOUTHWEST COLORADO...

CITY           SKY/WX    TMP DP  RH WIND       PRES   REMARKS
DURANGO        FAIR      89  24   9 W20G26    30.22F
CORTEZ         FAIR      94  24   8 W15G23    30.19F
PAGOSA SPRINGS FAIR      85  24  11 W15G21    30.31F
TELLURIDE      FAIR      77  15   9 W14G21    30.49F
WOLF CREEK PAS FAIR      61  34  36 S17G24    30.70F
$$

COZ009-010-012-014-032>034-037-058>063-252300-
...CENTRAL COLORADO...

CITY           SKY/WX    TMP DP  RH WIND       PRES   REMARKS
ASPEN          FAIR      82  19   9 N16G24    30.34F
BUENA VISTA    FAIR      82  13   7 NW10G17   30.31F
COPPER MTN     FAIR      64  18  16 NW20G25   30.69S
BERTHOUD PASS  PTSUNNY   54  41  62 NW28      30.70F
COTTONWOOD PAS FAIR      77  -2   4 SW7       30.48F
GUNNISON       FAIR      81  28  14 VRB6      30.33S
KREMMLING      NOT AVBL
LEADVILLE      FAIR      71  12  10 W12G21    30.50F
MONARCH PASS   FAIR      64  23  20 SW24G38   30.77F
SALIDA         FAIR      84  19   9 E3        30.34S
SUNLIGHT       FAIR      66  21  18 W8G16     30.63F
WILKERSON PASS PTSUNNY   55  43  62 E10G16    30.65R
$$

COZ069>075-252300-
...SAN LUIS VALLEY/SANGRE DE CRISTO MOUNTAINS...

CITY           SKY/WX    TMP DP  RH WIND       PRES   REMARKS
ALAMOSA        PTSUNNY   77  23  13 W20G35    30.31F
DEL NORTE      FAIR      79  44  29 SE13G21   30.34F
LA VETA PASS   FAIR      63  48  59 N16       30.64F
SAGUACHE       FAIR      86  18   8 NW17G31   30.31F
$$

COZ035-036-038>040-252300-
...NORTHERN COLORADO FRONT RANGE...

CITY           SKY/WX    TMP DP  RH WIND       PRES   REMARKS
DENVER INTL AP PTSUNNY   72  51  47 N8G17     30.31F
DMNS CITY PARK   N/A     71  49  46 E6G14     30.31F
AURORA         MOSUNNY   72  51  47 N7        30.31F
FRONT RANGE AP FAIR      72  54  53 N18       30.31F
ERIE MUNI ARPT PTSUNNY   70  50  48 CALM      30.31F
BOULDER MUN AP FAIR      68  50  52 CALM      30.31F
CENTENNIAL     FAIR      70  51  51 NW9       30.32F
BROOMFIELD     FAIR      68  50  52 N5        30.34F
FORT COLLINS   FAIR      69  51  52 CALM      30.31F
LONGMONT       PTSUNNY   74  51  44 E6        30.32F
$$

COZ041-046-047-076>085-087-088-252300-
...PIKES PEAK/PALMER DIVIDE AND SOUTHERN FOOTHILLS...

CITY           SKY/WX    TMP DP  RH WIND       PRES   REMARKS
COLO. SPRINGS  PTSUNNY   74  54  49 SE12      30.30S
A. F. ACADEMY  PTSUNNY   76  47  36 E10       30.31F
SCHRIEVER AFB  FAIR      72  52  49 E16G22    30.31F
CHEYENNE MTN   LGT RAIN  66  50  55 SW3       30.30F
ELLICOTT       FAIR     N/A N/A N/A E23G30    30.29F
FALCON           N/A     69  49  48 E14G23    30.36S
FORT CARSON    MOSUNNY   74  50  43 NW6       30.27S
LIMON          FAIR      78  51  38 SE15G21   30.28F
MONUMENT HILL  PTSUNNY   68  45  42 E8        30.38F
CANON CITY     MOSUNNY   86  55  35 E18       30.21F
WALSENBURG     FAIR      86  52  30 E8G21     30.24F
TRINIDAD       FAIR      84  50  30 E13       30.20F
$$

COZ042>045-048>051-090-091-252300-
...NORTHEAST COLORADO...

CITY           SKY/WX    TMP DP  RH WIND       PRES   REMARKS
GREELEY ARPT   CLOUDY    68  53  58 VRB5      30.31F
AKRON          FAIR      69  52  54 E13       30.30F
BURLINGTON     CLOUDY    65  55  70 E16G22    30.30F
WRAY           CLOUDY    66  54  63 SE14      30.31F
YUMA           CLOUDY    63  54  72 SE10      30.30F
STERLING       CLOUDY    72  54  53 S6        30.28S
HOLYOKE        NOT AVBL
FORT MORGAN    PTSUNNY   71  52  50 E6        30.30F
$$

COZ086-089-092>099-252300-
...SOUTHEAST COLORADO...

CITY           SKY/WX    TMP DP  RH WIND       PRES   REMARKS
PUEBLO         FAIR      86  51  29 SE14      30.18F
LA JUNTA       FAIR      81  58  45 E23G32    30.18S
LAMAR          FAIR      74  62  66 E21G32    30.18F
SPRINGFIELD      N/A     77  60  55 S9        30.18F
$$




USA.gov is the U.S. government's official web portal to all federal, state and local government web resources and services.